DW7673 Weather Reports


Display with metric or nautical units.
time (UTC)temp
F
wind
direction
speed
MPH
gust
MPH
rain 1hr
in
rain 24hr
in
rain mn
in
humidity
%
barometer
mb
20180120085302 51 351 0.0 0.0 0.00 0.00 0.00 43 1008.4
20180120084303 52 91 0.0 1.0 0.00 0.00 0.00 43 1008.5
20180120081303 51 135 0.0 0.0 0.00 0.00 0.00 44 1008.2
20180120080303 52 134 0.0 0.0 0.00 0.00 0.00 43 1008.1
20180120075303 51 134 0.0 0.0 0.00 0.00 0.00 43 1008.3
20180120072304 51 134 0.0 0.0 0.00 0.00 0.00 43 1008.7
20180120071303 51 134 0.0 0.0 0.00 0.00 0.00 43 1008.8
20180120070302 51 134 0.0 0.0 0.00 0.00 0.00 42 1008.7
20180120065302 52 134 0.0 0.0 0.00 0.00 0.00 41 1008.7
20180120064302 52 134 0.0 0.0 0.00 0.00 0.00 40 1008.7
20180120063302 53 134 0.0 0.0 0.00 0.00 0.00 40 1008.8
20180120062304 53 134 0.0 0.0 0.00 0.00 0.00 39 1008.9
20180120061303 53 134 0.0 0.0 0.00 0.00 0.00 39 1008.9
20180120060303 53 134 0.0 0.0 0.00 0.00 0.00 39 1008.9
20180120055303 53 134 0.0 0.0 0.00 0.00 0.00 38 1009.0
20180120054303 54 134 0.0 0.0 0.00 0.00 0.00 38 1008.9
20180120053303 54 134 0.0 0.0 0.00 0.00 0.00 37 1008.9
20180120052303 56 134 0.0 0.0 0.00 0.00 0.00 35 1009.0
20180120050303 56 134 0.0 0.0 0.00 0.00 0.00 33 1008.9
20180120045303 56 134 0.0 0.0 0.00 0.00 0.00 33 1008.8
20180120044304 57 134 0.0 0.0 0.00 0.00 0.00 34 1008.8
20180120043303 57 134 0.0 0.0 0.00 0.00 0.00 34 1008.8
20180120042303 57 134 0.0 0.0 0.00 0.00 0.00 34 1008.7
20180120040303 56 134 0.0 0.0 0.00 0.00 0.00 35 1008.8
20180120035303 57 134 0.0 0.0 0.00 0.00 0.00 33 1008.7
20180120033303 59 134 0.0 0.0 0.00 0.00 0.00 32 1008.7
20180120032302 58 134 0.0 0.0 0.00 0.00 0.00 33 1008.7
20180120031303 59 134 0.0 0.0 0.00 0.00 0.00 33 1008.8
20180120030304 59 134 0.0 0.0 0.00 0.00 0.00 33 1008.7
20180120025303 59 134 0.0 0.0 0.00 0.00 0.00 33 1008.7
20180120023302 61 132 0.0 0.0 0.00 0.00 0.00 31 1008.7
20180120022303 62 133 0.0 0.0 0.00 0.00 0.00 30 1008.8
20180120021304 62 133 0.0 0.0 0.00 0.00 0.00 30 1008.8
20180120020303 63 132 0.0 0.0 0.00 0.00 0.00 29 1008.8
20180120015303 64 132 0.0 0.0 0.00 0.00 0.00 29 1008.7
20180120014303 64 132 0.0 0.0 0.00 0.00 0.00 28 1008.7
20180120013303 65 132 0.0 0.0 0.00 0.00 0.00 28 1008.8
20180120012303 66 132 0.0 0.0 0.00 0.00 0.00 27 1008.8
20180120011303 68 132 0.0 0.0 0.00 0.00 0.00 26 1008.8
20180120010303 70 132 0.0 0.0 0.00 0.00 0.00 23 1008.8
20180120003303 78 134 0.0 0.0 0.00 0.00 0.00 16 1009.0
20180120002304 78 133 0.0 0.0 0.00 0.00 0.00 16 1009.1
20180120001304 77 133 0.0 1.0 0.00 0.00 0.00 16 1009.2
20180119235305 79 133 0.0 1.0 0.00 0.00 0.00 15 1009.4
20180119234302 78 211 0.0 1.0 0.00 0.00 0.00 16 1009.5
20180119233302 78 136 0.0 2.0 0.00 0.00 0.00 16 1009.6
20180119232302 78 126 0.0 2.0 0.00 0.00 0.00 16 1009.7
20180119231302 78 84 0.0 2.0 0.00 0.00 0.00 16 1009.8
20180119225302 76 144 0.0 2.0 0.00 0.00 0.00 18 1009.9
20180119224302 77 137 0.0 3.0 0.00 0.00 0.00 16 1010.0
20180119223302 77 1 0.0 2.0 0.00 0.00 0.00 17 1010.2
20180119221302 77 87 0.0 2.0 0.00 0.00 0.00 17 1010.4
20180119220302 77 152 1.0 2.0 0.00 0.00 0.00 17 1010.5
20180119215302 76 119 0.0 2.0 0.00 0.00 0.00 17 1010.7
20180119213302 75 5 0.0 1.0 0.00 0.00 0.00 18 1010.9
20180119212302 75 105 0.0 3.0 0.00 0.00 0.00 19 1011.0
20180119211302 75 119 0.0 3.0 0.00 0.00 0.00 19 1011.2
20180119210303 74 136 0.0 2.0 0.00 0.00 0.00 19 1011.4
20180119205302 73 15 0.0 3.0 0.00 0.00 0.00 20 1011.6
20180119204302 72 15 0.0 2.0 0.00 0.00 0.00 20 1011.8
20180119203302 72 46 0.0 3.0 0.00 0.00 0.00 21 1012.0
20180119202302 73 357 0.0 3.0 0.00 0.00 0.00 21 1012.2
20180119201302 72 152 0.0 3.0 0.00 0.00 0.00 22 1012.5
20180119200302 71 124 0.0 3.0 0.00 0.00 0.00 22 1012.7
20180119195302 71 176 0.0 3.0 0.00 0.00 0.00 22 1012.9
20180119194302 70 336 0.0 2.0 0.00 0.00 0.00 23 1013.1
20180119193302 69 123 1.0 3.0 0.00 0.00 0.00 23 1013.4
20180119192302 69 131 2.0 3.0 0.00 0.00 0.00 23 1013.6
20180119191302 68 114 0.0 3.0 0.00 0.00 0.00 23 1014.0
20180119190302 68 114 1.0 3.0 0.00 0.00 0.00 24 1014.2
20180119185302 67 83 1.0 3.0 0.00 0.00 0.00 24 1014.6
20180119183302 67 85 0.0 3.0 0.00 0.00 0.00 25 1015.0
20180119182302 66 124 0.0 1.0 0.00 0.00 0.00 25 1015.3
20180119180302 63 133 0.0 1.0 0.00 0.00 0.00 28 1015.7
20180119175304 63 171 1.0 2.0 0.00 0.00 0.00 29 1015.8
20180119174303 63 147 0.0 2.0 0.00 0.00 0.00 29 1015.9
20180119173302 63 210 0.0 1.0 0.00 0.00 0.00 27 1015.9
20180119172302 62 235 0.0 1.0 0.00 0.00 0.00 28 1015.9
20180119171302 62 181 0.0 2.0 0.00 0.00 0.00 27 1015.9
20180119170302 61 183 0.0 2.0 0.00 0.00 0.00 28 1015.9
20180119165303 62 96 0.0 1.0 0.00 0.00 0.00 28 1015.9
20180119164304 63 138 0.0 1.0 0.00 0.00 0.00 27 1015.9
20180119163304 62 259 0.0 0.0 0.00 0.00 0.00 30 1015.9
20180119161302 59 260 0.0 0.0 0.00 0.00 0.00 37 1015.8
20180119160303 56 260 0.0 0.0 0.00 0.00 0.00 39 1015.7
20180119154302 52 260 0.0 0.0 0.00 0.00 0.00 48 1015.6
20180119153302 49 260 0.0 0.0 0.00 0.00 0.00 52 1015.5
20180119152303 46 260 0.0 0.0 0.00 0.00 0.00 54 1015.5
20180119151303 44 260 0.0 0.0 0.00 0.00 0.00 57 1015.4
20180119145303 47 7 0.0 0.0 0.00 0.00 0.00 50 1015.3
20180119142303 47 7 0.0 0.0 0.00 0.00 0.00 50 1014.9
20180119141302 47 0 0.0 0.0 0.00 0.00 0.00 50 1014.9
20180119135303 47 3 0.0 0.0 0.00 0.00 0.00 50 1014.6
20180119134303 47 7 0.0 0.0 0.00 0.00 0.00 50 1014.4
20180119133302 47 0 0.0 0.0 0.00 0.00 0.00 50 1014.4
20180119132302 47 0 0.0 0.0 0.00 0.00 0.00 50 1014.7
20180119131302 47 0 0.0 0.0 0.00 0.00 0.00 50 1014.6
20180119130303 47 7 0.0 0.0 0.00 0.00 0.00 50 1014.7
20180119125303 47 3 0.0 0.0 0.00 0.00 0.00 50 1014.7
20180119124302 47 0 0.0 0.0 0.00 0.00 0.00 50 1014.7
20180119121303 47 7 0.0 0.0 0.00 0.00 0.00 50 1014.8
20180119120303 47 0 0.0 0.0 0.00 0.00 0.00 50 1014.8
20180119115302 47 0 0.0 0.0 0.00 0.00 0.00 50 1014.8
20180119114303 47 0 0.0 0.0 0.00 0.00 0.00 50 1014.8
20180119113303 47 7 0.0 0.0 0.00 0.00 0.00 50 1014.7
20180119112303 47 7 0.0 0.0 0.00 0.00 0.00 50 1014.8
20180119110303 47 7 0.0 0.0 0.00 0.00 0.00 50 1014.9
20180119105303 47 348 0.0 0.0 0.00 0.00 0.00 50 1014.9
20180119104303 48 349 0.0 0.0 0.00 0.00 0.00 48 1015.0
20180119103302 47 349 0.0 0.0 0.00 0.00 0.00 51 1014.8
20180119102305 47 349 0.0 0.0 0.00 0.00 0.00 50 1014.9
20180119101303 48 349 0.0 0.0 0.00 0.00 0.00 47 1015.0
20180119095305 48 349 0.0 0.0 0.00 0.00 0.00 48 1015.0
20180119094303 48 349 0.0 0.0 0.00 0.00 0.00 48 1015.0
20180119093303 48 349 0.0 0.0 0.00 0.00 0.00 47 1015.2
20180119092302 49 349 0.0 0.0 0.00 0.00 0.00 47 1015.2
20180119090303 50 349 0.0 0.0 0.00 0.00 0.00 45 1015.1